| time (UTC) | temp C | wind direction | speed KPH | gust KPH | rain 1hr cm | rain 24hr cm | rain mn cm | humidity % | barometer mb |
| 20260506103003 | 11 | 100 | 0.0 | 0.0 | 0.00 | 0.00 | 0.00 | 86 | 1019.0 |
| 20260506101544 | 11 | 100 | 0.0 | 0.0 | 0.00 | 0.00 | 0.00 | 86 | 1018.9 |
| 20260506100044 | 11 | 100 | 0.0 | 0.0 | 0.00 | 0.00 | 0.00 | 87 | 1018.8 |
| 20260506094534 | 11 | 100 | 0.0 | 0.0 | 0.00 | 0.00 | 0.00 | 87 | 1018.8 |
| 20260506093033 | 11 | 100 | 0.0 | 0.0 | 0.00 | 0.00 | 0.00 | 87 | 1018.8 |
| 20260506091507 | 11 | 100 | 0.0 | 0.0 | 0.00 | 0.00 | 0.00 | 87 | 1018.8 |
| 20260506090004 | 11 | 100 | 0.0 | 0.0 | 0.00 | 0.00 | 0.00 | 87 | 1018.9 |
| 20260506084547 | 11 | 100 | 0.0 | 0.0 | 0.00 | 0.00 | 0.00 | 87 | 1018.9 |
| 20260506083046 | 11 | 100 | 0.0 | 0.0 | 0.00 | 0.00 | 0.00 | 88 | 1018.9 |
| 20260506081533 | 11 | 100 | 0.0 | 0.0 | 0.00 | 0.00 | 0.00 | 88 | 1018.9 |
| 20260506073007 | 11 | 100 | 0.0 | 0.0 | 0.00 | 0.03 | 0.00 | 88 | 1018.5 |
| 20260506071547 | 11 | 100 | 0.0 | 0.0 | 0.00 | 0.03 | 0.00 | 88 | 1018.4 |
| 20260506061501 | 12 | 100 | 0.0 | 0.0 | 0.00 | 0.05 | 0.03 | 88 | 1017.8 |
| 20260506060126 | 12 | 100 | 0.0 | 0.0 | 0.00 | 0.05 | 0.03 | 88 | 1017.8 |
| 20260506044613 | 12 | 104 | 0.0 | 3.2 | 0.00 | 0.08 | 0.03 | 87 | 1017.0 |
| 20260506043056 | 12 | 114 | 0.0 | 1.6 | 0.00 | 0.08 | 0.03 | 87 | 1017.0 |
| 20260506041535 | 12 | 113 | 0.0 | 1.6 | 0.00 | 0.08 | 0.03 | 87 | 1016.7 |
| 20260506040035 | 12 | 158 | 0.0 | 11.3 | 0.00 | 0.08 | 0.03 | 87 | 1016.3 |
| 20260506034514 | 12 | 127 | 0.0 | 3.2 | 0.00 | 0.08 | 0.03 | 87 | 1016.0 |
| 20260506033012 | 12 | 130 | 1.6 | 9.7 | 0.00 | 0.08 | 0.03 | 87 | 1015.8 |
| 20260506031558 | 12 | 148 | 1.6 | 4.8 | 0.00 | 0.08 | 0.03 | 86 | 1015.6 |
| 20260506030054 | 12 | 110 | 0.0 | 6.4 | 0.00 | 0.08 | 0.03 | 86 | 1015.5 |
| 20260506024546 | 13 | 102 | 1.6 | 9.7 | 0.00 | 0.10 | 0.03 | 86 | 1015.3 |
| 20260506023036 | 13 | 111 | 0.0 | 9.7 | 0.00 | 0.10 | 0.03 | 85 | 1015.0 |
| 20260506021518 | 13 | 110 | 0.0 | 4.8 | 0.00 | 0.10 | 0.03 | 84 | 1015.0 |
| 20260506020017 | 13 | 98 | 3.2 | 8.0 | 0.00 | 0.10 | 0.03 | 83 | 1014.9 |
| 20260506014601 | 14 | 139 | 0.0 | 8.0 | 0.00 | 0.20 | 0.03 | 83 | 1014.8 |
| 20260506013059 | 15 | 145 | 1.6 | 6.4 | 0.00 | 0.20 | 0.03 | 82 | 1014.6 |
| 20260506011543 | 15 | 127 | 1.6 | 8.0 | 0.00 | 0.20 | 0.03 | 81 | 1014.6 |
| 20260506010041 | 15 | 99 | 1.6 | 9.7 | 0.00 | 0.20 | 0.03 | 81 | 1014.6 |
| 20260506004523 | 15 | 136 | 1.6 | 9.7 | 0.00 | 0.20 | 0.03 | 80 | 1014.6 |
| 20260506003023 | 15 | 110 | 0.0 | 11.3 | 0.00 | 0.20 | 0.03 | 80 | 1014.5 |
| 20260506001505 | 16 | 107 | 1.6 | 9.7 | 0.00 | 0.20 | 0.03 | 78 | 1014.5 |
| 20260506000004 | 17 | 119 | 3.2 | 8.0 | 0.00 | 0.20 | 0.03 | 76 | 1014.4 |
| 20260505234550 | 17 | 148 | 4.8 | 11.3 | 0.00 | 0.23 | 0.03 | 74 | 1014.3 |
| 20260505233045 | 18 | 105 | 0.0 | 6.4 | 0.00 | 0.23 | 0.03 | 74 | 1014.4 |
| 20260505231526 | 17 | 347 | 0.0 | 4.8 | 0.00 | 0.23 | 0.03 | 74 | 1014.5 |
| 20260505230045 | 18 | 153 | 0.0 | 9.7 | 0.00 | 0.23 | 0.03 | 73 | 1014.6 |
| 20260505224507 | 18 | 130 | 3.2 | 6.4 | 0.00 | 0.25 | 0.03 | 72 | 1014.7 |
| 20260505223007 | 18 | 148 | 3.2 | 8.0 | 0.00 | 0.25 | 0.03 | 71 | 1014.8 |
| 20260505221547 | 17 | 50 | 0.0 | 8.0 | 0.00 | 0.25 | 0.03 | 73 | 1014.9 |
| 20260505220044 | 17 | 41 | 0.0 | 8.0 | 0.00 | 0.25 | 0.03 | 76 | 1015.0 |
| 20260505214526 | 17 | 184 | 1.6 | 11.3 | 0.00 | 0.43 | 0.03 | 77 | 1015.2 |
| 20260505213023 | 16 | 125 | 0.0 | 11.3 | 0.00 | 0.43 | 0.03 | 81 | 1015.2 |
| 20260505211504 | 16 | 106 | 1.6 | 12.9 | 0.00 | 0.43 | 0.03 | 84 | 1015.4 |
| 20260505210101 | 16 | 170 | 3.2 | 9.7 | 0.00 | 0.43 | 0.03 | 87 | 1015.4 |
| 20260505204539 | 14 | 137 | 0.0 | 3.2 | 0.00 | 0.81 | 0.03 | 84 | 1015.4 |
| 20260505203038 | 13 | 150 | 0.0 | 3.2 | 0.00 | 0.81 | 0.03 | 84 | 1015.6 |
| 20260505201519 | 13 | 137 | 0.0 | 0.0 | 0.00 | 0.81 | 0.03 | 84 | 1015.4 |
| 20260505200020 | 13 | 95 | 1.6 | 8.0 | 0.00 | 0.81 | 0.03 | 84 | 1015.6 |
| 20260505194559 | 13 | 8 | 0.0 | 4.8 | 0.00 | 0.81 | 0.03 | 84 | 1015.6 |
| 20260505193057 | 13 | 111 | 0.0 | 4.8 | 0.00 | 0.81 | 0.03 | 85 | 1015.6 |
| 20260505191537 | 12 | 352 | 0.0 | 3.2 | 0.00 | 0.81 | 0.03 | 86 | 1015.6 |
| 20260505190034 | 12 | 100 | 0.0 | 3.2 | 0.00 | 0.81 | 0.03 | 86 | 1015.7 |
| 20260505184516 | 11 | 100 | 0.0 | 1.6 | 0.00 | 0.81 | 0.03 | 86 | 1015.7 |
| 20260505183015 | 11 | 330 | 0.0 | 3.2 | 0.00 | 0.81 | 0.03 | 86 | 1015.7 |
| 20260505181555 | 11 | 293 | 0.0 | 4.8 | 0.00 | 0.81 | 0.03 | 86 | 1015.6 |
| 20260505180104 | 11 | 82 | 0.0 | 3.2 | 0.00 | 0.81 | 0.03 | 86 | 1015.6 |
| 20260505174539 | 11 | 343 | 0.0 | 3.2 | 0.00 | 0.81 | 0.03 | 86 | 1015.5 |
| 20260505173033 | 11 | 33 | 0.0 | 3.2 | 0.00 | 0.81 | 0.03 | 87 | 1015.3 |
| 20260505171513 | 11 | 22 | 0.0 | 1.6 | 0.00 | 0.81 | 0.03 | 87 | 1015.2 |
| 20260505170011 | 10 | 356 | 0.0 | 3.2 | 0.00 | 0.81 | 0.03 | 87 | 1015.2 |
| 20260505164552 | 10 | 18 | 0.0 | 3.2 | 0.00 | 0.81 | 0.03 | 87 | 1015.2 |
| 20260505163048 | 10 | 259 | 0.0 | 3.2 | 0.00 | 0.81 | 0.03 | 87 | 1015.1 |
| 20260505161529 | 10 | 41 | 0.0 | 3.2 | 0.00 | 0.81 | 0.03 | 87 | 1015.0 |
| 20260505153011 | 10 | 352 | 0.0 | 4.8 | 0.00 | 0.81 | 0.03 | 87 | 1014.8 |
| 20260505151607 | 10 | 26 | 0.0 | 3.2 | 0.00 | 0.81 | 0.03 | 87 | 1014.5 |
| 20260505124531 | 8 | 86 | 0.0 | 1.6 | 0.00 | 0.81 | 0.03 | 87 | 1013.5 |
| 20260505123026 | 8 | 98 | 0.0 | 1.6 | 0.00 | 0.81 | 0.03 | 87 | 1013.4 |
| 20260505121512 | 8 | 98 | 0.0 | 0.0 | 0.00 | 0.81 | 0.03 | 87 | 1013.5 |
| 20260505120054 | 8 | 99 | 0.0 | 0.0 | 0.00 | 0.81 | 0.03 | 87 | 1013.7 |
| 20260505114556 | 8 | 99 | 0.0 | 0.0 | 0.00 | 0.81 | 0.03 | 87 | 1013.5 |
| 20260505113039 | 8 | 99 | 0.0 | 0.0 | 0.00 | 0.81 | 0.03 | 87 | 1013.5 |
| 20260505111535 | 8 | 99 | 0.0 | 0.0 | 0.00 | 0.81 | 0.03 | 87 | 1013.6 |